OBJECT AE, 62405

Orbit data source: Space-Track

You're viewing an Uncataloged Satellite

Recently launched and/or uncataloged satellites may have evolving metadata. Metadata may include but not limited to: Owner, Maufacturer, Bus, Motor, and Mission.

OBJECT AE, 62405 is a satellite in LEO that was launched on Sat, 21 Dec 2024 UTC via an FALCON 9 launch vehicle from the Air Force Western Test Range (AFWTR). Unknown objects in Earth's orbit typically refer to objects detected orbiting the Earth but have not yet been identified or cataloged. These objects could be anything from previously untracked satellites, spent rocket stages, debris from satellite collisions, or even natural meteoroids temporarily captured by Earth's gravity.

Loading next visibility...
Identifier
62405, 2024-247AE
Orbit
LEO
Last TLE update
3 days ago
Origin
Manufacturer
ONDO Space
Mission
Operational spacecraft
Bus & Motor
CUBESAT 0.5U, Unknown motor
Mass
0.25 kg wet, 0.25 kg dry
Launch date (UTC)
2024-12-21 (5 months ago)
Launch vehicle
FALCON 9
Launch site
Air Force Western Test Range (AFWTR)
Object type
Unknown
Shape & HBR
Unknown
Radar Cross Section
Small (<0.1 m²)

Expand to show TLE details & history

TLE from 3 days ago
0 OBJECT AE
1 62405U 24247AE  25126.98618588  .00021493  00000-0  78437-3 0  9996
2 62405  44.9858 340.3366 0006061 257.7798 102.2406 15.27826756 20376
Epoch: 2025-05-06T23:40Z
Definitive object data (Epoch: 2025-05-06T23:40:06.46Z)
Latitude
-0.00002°
Longitude
120.23215°
Altitude
483.191 km
Speed
7.625 km/s
True Right ascension
22h 41m 20s
True Declination
0° 00' 00"
Sunlit
Object was in daylight at TLE epoch
Visualization TLE readout
Latitude
-15.23576°
Longitude
90.23642°
Altitude
483.444 km
Speed
7.625 km/s
Apparent Right ascension
17h 42m 30s
Apparent Declination
-61° 26' 04"
Sunlit
Object is in daylight
Visualization observer readout
Local Sidereal Time
22:30:31
Azimuth
210.619° SW
Elevation
-26.76°
Doppler factor
1
Orbital elements
Apogee altitude
488.081 km
Perigee altitude
479.763 km
Semi-major axis
6,862.059 km
Eccentricity
0.0006061
Inclination
44.9858°
RAAN
340.3366°
Arg. of periapsis
257.7798°
True anomaly
102.30846°
Mean anomaly
102.2406°
Eccentric anomaly
102.27453°
Mean motion
3.81822 °/min
BSTAR
0.00078437
Orbital period
94.28 mins
Loading maneuver chart data...
Loading SW <> Apogee altitude chart data...
Loading historical data...
Loading historical data...
Loading historical data...
Loading historical data...
Loading historical data...
Loading historical data...
Loading historical data...

OBJECT AE Visibility forecast

Observer location: undefined°, undefined°

Span
Click to sort rows by Start time (UTC) header in descending order
Start Az.
Max El. time (UTC)
Max El. Az.
Max El.
End time (UTC)
End Az.
6 mins2025-05-09 16:11:23.260Z208.044° SW2025-05-09 16:14:23.260Z146.029° SSE28.678°2025-05-09 16:17:23.260Z83.527° E
6 mins2025-05-09 17:50:23.260Z265.368° W2025-05-09 17:53:23.260Z9.759° NNE39.699°2025-05-09 17:56:23.260Z61.873° ENE
5 mins2025-05-09 19:30:23.260Z307.982° NW2025-05-09 19:32:23.260Z7.783° NNE30.713°2025-05-09 19:35:23.260Z67.564° E
5 mins2025-05-09 21:09:23.260Z303.924° NW2025-05-09 21:11:23.260Z22.621° NE41.963°2025-05-09 21:14:23.260Z99.732° ESE
4 mins2025-05-09 22:48:23.260Z256.731° W2025-05-09 22:50:23.260Z201.789° SSW25.59°2025-05-09 22:52:23.260Z161.641° S
|